Portada
METAR-TAF:

METAR-TAF

Aeroports :

Erwin, Carolina del Nord, Estats Units d'Amèrica

latitud: 35-22-43N, longitud: 078-44-01W, altitud: 60 m

Observació

L'informe es va fer fa 15 minuts, a les 23:15 UTC
Vent calma
Temperatura 26°C
Humitat 84%
Pressió 1018 hPa
Visibilitat: 16.1 km
Cel clar

METAR: KHRJ 072315Z AUTO 00000KT 10SM CLR 26/23 A3007 RMK AO2 T02640226

Hora: 19:30 (23:30 UTC)


TAF: manca

Observacions i pronòstics meteorològics de més de 4000 aeroports (METAR i TAF).

Les estacions disponibles són els punts grocs i vermells al mapa.

Posi el ratolí al punt desitjat per veure el nom de l'estació.

Feu clic per veure les observacions i els pronòstics meteorològics.

Per canviar el mapa: feu clic els botons verds amb una creu de color negre per apropar; al botó verd amb un guió per allunyar la imatge; o en les fletxes verdes per a mapes adjacents.


METAR-TAF: